Location: Brantley
(31.5822°N, 86.2569°W)
Time: 06:58:04
(UTC+00:00)

Vanguard 2 - Pass Details

Date: 24 February 2026
Orbit: 553 x 2896 km, 32.9° (Epoch: 9 March)

Event Time Altitude Azimuth Distance (km) Brightness Sun altitude
Rises 07:10:53 0° 223° (SW) 6,251 - -62.2°
Reaches altitude 10° 07:15:50 10° 217° (SW) 4,931 - -61.5°
Maximum altitude 07:27:34 39° 155° (SSE) 2,340 - -59.7°
Drops below altitude 10° 07:35:06 10° 90° (E) 3,181 - -58.5°
Exits shadow 07:36:48 - 84° (E) 3,653 11.3 -58.2°
Sets 07:37:35 0° 82° (E) 3,882 11.5 -58.0°
